TimeCDT,TemperatureF,Dew PointF,Humidity,Sea Level PressureIn,VisibilityMPH,Wind Direction,Wind SpeedMPH,Gust SpeedMPH,PrecipitationIn,Events,Conditions,WindDirDegrees,DateUTC
12:12 AM,37.4,26.6,65,30.05,10.0,South,4.6,-,N/A,,Clear,190,2011-10-28 05:12:00
12:33 AM,37.4,26.6,65,30.05,10.0,South,4.6,-,N/A,,Clear,180,2011-10-28 05:33:00
12:52 AM,37.4,24.8,60,30.05,10.0,South,3.5,-,N/A,,Clear,180,2011-10-28 05:52:00
1:12 AM,37.4,26.6,65,30.05,10.0,South,3.5,-,N/A,,Clear,170,2011-10-28 06:12:00
1:33 AM,37.4,26.6,65,30.05,10.0,South,5.8,-,N/A,,Clear,190,2011-10-28 06:33:00
1:52 AM,37.4,26.6,65,30.05,10.0,South,3.5,-,N/A,,Mostly Cloudy,170,2011-10-28 06:52:00
2:12 AM,37.4,26.6,65,30.04,10.0,South,4.6,-,N/A,,Overcast,190,2011-10-28 07:12:00
2:32 AM,37.4,26.6,65,30.03,10.0,South,4.6,-,N/A,,Overcast,190,2011-10-28 07:32:00
2:52 AM,37.4,26.6,65,30.03,10.0,South,4.6,-,N/A,,Overcast,190,2011-10-28 07:52:00
3:12 AM,37.4,26.6,65,30.03,10.0,South,5.8,-,N/A,,Overcast,190,2011-10-28 08:12:00
3:33 AM,39.2,26.6,61,30.02,10.0,South,5.8,-,N/A,,Overcast,190,2011-10-28 08:33:00
3:52 AM,39.2,28.4,65,30.02,10.0,SSW,4.6,-,N/A,,Overcast,200,2011-10-28 08:52:00
4:12 AM,42.8,26.6,53,30.02,10.0,SSW,8.1,-,N/A,,Overcast,200,2011-10-28 09:12:00
4:32 AM,44.6,26.6,49,30.01,10.0,SSW,8.1,-,N/A,,Overcast,200,2011-10-28 09:32:00
4:52 AM,42.8,26.6,53,30.01,10.0,SSW,8.1,-,N/A,,Overcast,200,2011-10-28 09:52:00
5:12 AM,42.8,26.6,53,30.02,10.0,SSW,5.8,-,N/A,,Overcast,210,2011-10-28 10:12:00
5:32 AM,42.8,28.4,57,30.02,10.0,SSW,8.1,-,N/A,,Overcast,210,2011-10-28 10:32:00
5:52 AM,41.0,28.4,61,30.02,10.0,SW,6.9,-,N/A,,Overcast,230,2011-10-28 10:52:00
6:12 AM,39.2,26.6,61,30.02,10.0,SW,5.8,-,N/A,,Mostly Cloudy,230,2011-10-28 11:12:00
6:32 AM,37.4,26.6,65,30.02,10.0,WSW,6.9,-,N/A,,Scattered Clouds,240,2011-10-28 11:32:00
6:52 AM,35.6,26.6,70,30.02,10.0,West,9.2,-,N/A,,Clear,260,2011-10-28 11:52:00
7:12 AM,33.8,26.6,75,30.03,10.0,West,8.1,-,N/A,,Clear,270,2011-10-28 12:12:00
7:33 AM,33.8,26.6,75,30.03,10.0,West,9.2,-,N/A,,Clear,280,2011-10-28 12:33:00
7:52 AM,33.8,26.6,75,30.04,10.0,West,9.2,-,N/A,,Clear,280,2011-10-28 12:52:00
8:12 AM,35.6,28.4,75,30.05,10.0,WNW,9.2,-,N/A,,Clear,290,2011-10-28 13:12:00
8:52 AM,41.0,33.8,76,30.05,10.0,WNW,10.4,-,N/A,,Clear,300,2011-10-28 13:52:00
9:12 AM,42.8,33.8,70,30.06,10.0,WNW,9.2,-,N/A,,Clear,290,2011-10-28 14:12:00
9:32 AM,44.6,33.8,66,30.07,10.0,WNW,11.5,-,N/A,,Clear,300,2011-10-28 14:32:00
9:52 AM,46.4,33.8,62,30.07,10.0,WNW,13.8,18.4,N/A,,Clear,300,2011-10-28 14:52:00
10:12 AM,48.2,32.0,54,30.08,10.0,WNW,16.1,-,N/A,,Clear,300,2011-10-28 15:12:00
10:33 AM,50.0,30.2,47,30.08,10.0,NW,15.0,20.7,N/A,,Clear,310,2011-10-28 15:33:00
10:52 AM,51.8,30.2,44,30.08,10.0,NW,19.6,-,N/A,,Clear,320,2011-10-28 15:52:00
11:12 AM,51.8,30.2,44,30.08,10.0,NW,16.1,25.3,N/A,,Clear,310,2011-10-28 16:12:00
11:33 AM,53.6,26.6,35,30.08,10.0,NW,16.1,24.2,N/A,,Clear,320,2011-10-28 16:33:00
11:52 AM,53.6,24.8,33,30.09,10.0,NW,21.9,27.6,N/A,,Clear,320,2011-10-28 16:52:00
12:12 PM,55.4,24.8,31,30.09,10.0,NW,18.4,25.3,N/A,,Clear,310,2011-10-28 17:12:00
12:33 PM,55.4,23.0,29,30.08,10.0,NW,17.3,25.3,N/A,,Clear,310,2011-10-28 17:33:00
12:52 PM,57.2,23.0,27,30.08,10.0,WNW,19.6,25.3,N/A,,Clear,290,2011-10-28 17:52:00
1:12 PM,57.2,21.2,25,30.07,10.0,NW,18.4,28.8,N/A,,Clear,310,2011-10-28 18:12:00
1:32 PM,57.2,21.2,25,30.07,10.0,NW,18.4,25.3,N/A,,Clear,310,2011-10-28 18:32:00
2:12 PM,57.2,21.2,25,30.06,10.0,NW,18.4,27.6,N/A,,Scattered Clouds,310,2011-10-28 19:12:00
2:33 PM,57.2,19.4,23,30.05,10.0,WNW,23.0,33.4,N/A,,Scattered Clouds,290,2011-10-28 19:33:00
2:52 PM,57.2,21.2,25,30.05,10.0,WNW,25.3,28.8,N/A,,Scattered Clouds,300,2011-10-28 19:52:00
3:12 PM,57.2,21.2,25,30.04,10.0,WNW,20.7,31.1,N/A,,Scattered Clouds,300,2011-10-28 20:12:00
3:32 PM,59.0,21.2,23,30.04,10.0,NW,20.7,25.3,N/A,,Scattered Clouds,310,2011-10-28 20:32:00
3:52 PM,59.0,21.2,23,30.03,10.0,NW,19.6,26.5,N/A,,Scattered Clouds,310,2011-10-28 20:52:00
4:12 PM,57.2,21.2,25,30.03,10.0,WNW,20.7,27.6,N/A,,Clear,290,2011-10-28 21:12:00
4:33 PM,57.2,21.2,25,30.04,10.0,WNW,21.9,28.8,N/A,,Clear,300,2011-10-28 21:33:00
4:52 PM,57.2,21.2,25,30.04,10.0,WNW,23.0,28.8,N/A,,Clear,290,2011-10-28 21:52:00
5:12 PM,55.4,19.4,25,30.04,10.0,WNW,17.3,26.5,N/A,,Clear,300,2011-10-28 22:12:00
5:33 PM,55.4,19.4,25,30.04,10.0,WNW,16.1,23.0,N/A,,Clear,300,2011-10-28 22:33:00
5:52 PM,53.6,19.4,26,30.04,10.0,WNW,11.5,-,N/A,,Clear,300,2011-10-28 22:52:00
6:12 PM,51.8,21.2,30,30.04,10.0,NW,9.2,-,N/A,,Clear,310,2011-10-28 23:12:00
6:52 PM,46.4,21.2,37,30.06,10.0,NW,9.2,-,N/A,,Clear,310,2011-10-28 23:52:00
7:12 PM,44.6,21.2,39,30.07,10.0,NW,9.2,-,N/A,,Clear,310,2011-10-29 00:12:00
7:33 PM,44.6,23.0,43,30.07,10.0,NW,9.2,-,N/A,,Clear,310,2011-10-29 00:33:00
7:52 PM,46.4,23.0,40,30.07,10.0,WNW,10.4,-,N/A,,Clear,300,2011-10-29 00:52:00
8:12 PM,44.6,24.8,46,30.07,10.0,WNW,9.2,-,N/A,,Clear,300,2011-10-29 01:12:00
8:33 PM,39.2,23.0,52,30.08,10.0,West,6.9,-,N/A,,Clear,280,2011-10-29 01:33:00
8:52 PM,37.4,23.0,56,30.08,10.0,West,8.1,-,N/A,,Clear,270,2011-10-29 01:52:00
9:12 PM,37.4,23.0,56,30.08,10.0,West,5.8,-,N/A,,Clear,270,2011-10-29 02:12:00
9:32 PM,37.4,23.0,56,30.08,10.0,West,5.8,-,N/A,,Clear,260,2011-10-29 02:32:00
9:52 PM,35.6,21.2,56,30.08,10.0,West,5.8,-,N/A,,Clear,260,2011-10-29 02:52:00
10:12 PM,35.6,23.0,60,30.07,10.0,West,5.8,-,N/A,,Clear,260,2011-10-29 03:12:00
10:32 PM,33.8,23.0,65,30.07,10.0,Calm,Calm,-,N/A,,Clear,0,2011-10-29 03:32:00
10:53 PM,35.6,23.0,60,30.07,10.0,WSW,5.8,-,N/A,,Clear,250,2011-10-29 03:53:00
11:12 PM,33.8,23.0,65,30.07,10.0,WSW,5.8,-,N/A,,Clear,250,2011-10-29 04:12:00
11:32 PM,33.8,21.2,60,30.07,10.0,WSW,4.6,-,N/A,,Clear,250,2011-10-29 04:32:00
11:52 PM,33.8,23.0,65,30.07,10.0,WSW,4.6,-,N/A,,Clear,250,2011-10-29 04:52:00